Flag for US Virgin Islands Weather past 2 weeks in Christiansted, US Virgin Islands

Now
87 °F

Scattered clouds.


Feels Like: 95 °F
Forecast: 78 / 85 °F
Wind: 10 mph from Southeast

Location: Christiansted / Henry E. Rohlsen Airport - Saint Croix

Current Time: Jul 29, 2014 at 3:51:01 PM

Latest Report: Jul 29, 2014 at 2:53 PM


Visibility: 10 mi

Pressure: 30.01 "Hg

Humidity: 63%

Dew point: 73 °F

Location of ChristianstedLocation

Historic Weather in Christiansted — Graph

°F

Christiansted temperature yesterday

Maximum temperature yesterday: 89 °F (at 11:53 AM)
Minimum temperature yesterday: 77 °F (at 3:53 AM)
Average temperature yesterday: 82 °F

Past Weeks' High & Low Weather Summary

 TemperatureHumidityPressure
High92 °F (Jul 19, 12:53 PM)89% (Jul 22, 12:36 PM)30.13 "Hg (Jul 22, 12:36 PM)
Low77 °F (Jul 28, 3:53 AM)50% (Jul 24, 10:53 AM)29.99 "Hg (Jul 26, 4:05 AM)
Average84 °F70%30.06 "Hg
* Reported Jul 14 1:53 PM — Jul 29 1:53 PM, Christiansted, Weather by CustomWeather, © 2014

Note: Actual official high and low records may vary slightly from our data, if they occured in-between our weather recording intervals... More about our weather records

Advertising

Christiansted weather history for previous 24 hours

 ConditionsComfort  
Time TempWeatherWind HumidityBarometerVisibility
1:53 PM
Jul 29
88 °FScattered clouds.12 mph61%30.03 "Hg10 mi
12:53 PM90 °FPassing clouds.10 mph57%30.05 "Hg10 mi
11:53 AM89 °FScattered clouds.12 mph59%30.05 "Hg10 mi
10:53 AM89 °FScattered clouds.13 mph59%30.06 "Hg10 mi
9:53 AM87 °FPassing clouds.13 mph63%30.06 "Hg10 mi
8:53 AM86 °FPassing clouds.10 mph65%30.06 "Hg10 mi
7:53 AM84 °FScattered clouds.10 mph70%30.05 "Hg10 mi
6:53 AM82 °FPassing clouds.12 mph72%30.04 "Hg10 mi
5:53 AM79 °FPassing clouds.8 mph79%30.02 "Hg10 mi
4:53 AM79 °FPassing clouds.7 mph79%30.01 "Hg10 mi
3:53 AM79 °FPassing clouds.5 mph79%30.01 "Hg10 mi
2:53 AM79 °FPassing clouds.6 mph79%30.01 "Hg10 mi
1:53 AM79 °FPassing clouds.6 mph79%30.03 "Hg10 mi
12:53 AM78 °FPassing clouds.5 mph82%30.05 "Hg10 mi
11:53 PM
Jul 28
77 °FPassing clouds.3 mph85%30.06 "Hg10 mi
10:53 PM78 °FClear.5 mph82%30.07 "Hg10 mi
9:53 PM78 °FClear.3 mph82%30.08 "Hg10 mi
8:53 PM80 °FPassing clouds.5 mph76%30.07 "Hg10 mi
7:53 PM81 °FPassing clouds.8 mph74%30.06 "Hg10 mi
5:53 PM85 °FPassing clouds.12 mph63%30.03 "Hg10 mi
4:53 PM86 °FPassing clouds.12 mph63%30.03 "Hg10 mi
3:53 PM88 °FSunny.14 mph59%30.03 "Hg10 mi
Weather by CustomWeather, © 2014

See weather overviewHow to use our weather pages